TimeCDT,TemperatureF,Dew PointF,Humidity,Sea Level PressureIn,VisibilityMPH,Wind Direction,Wind SpeedMPH,Gust SpeedMPH,PrecipitationIn,Events,Conditions,WindDirDegrees,DateUTC
12:15 AM,52.9,51.3,94,29.95,7.0,ENE,3.5,-,N/A,Rain,Heavy Rain,60,2013-10-04 05:15:00
12:35 AM,52.9,51.3,94,29.95,5.0,ENE,4.6,-,0.01,,Drizzle,70,2013-10-04 05:35:00
12:55 AM,52.7,51.1,94,29.96,7.0,NNE,5.8,-,0.01,,Overcast,30,2013-10-04 05:55:00
1:15 AM,52.3,50.9,95,29.96,5.0,Calm,Calm,-,N/A,,Drizzle,0,2013-10-04 06:15:00
1:35 AM,52.2,50.9,95,29.97,4.0,NE,4.6,-,0.01,,Heavy Drizzle,40,2013-10-04 06:35:00
1:55 AM,52.0,50.5,95,29.97,5.0,NE,4.6,-,0.02,Rain,Light Rain,40,2013-10-04 06:55:00
2:15 AM,51.8,50.4,95,29.98,5.0,North,4.6,-,0.01,,Drizzle,10,2013-10-04 07:15:00
2:35 AM,51.6,50.0,94,29.98,7.0,NE,5.8,-,0.01,,Drizzle,40,2013-10-04 07:35:00
2:55 AM,51.3,50.0,95,29.97,5.0,NE,6.9,-,0.03,,Drizzle,40,2013-10-04 07:55:00
3:15 AM,51.3,50.0,95,29.98,4.0,Calm,Calm,-,0.03,,Heavy Drizzle,0,2013-10-04 08:15:00
3:35 AM,51.3,50.0,95,29.98,5.0,NE,5.8,-,0.03,Rain,Rain,40,2013-10-04 08:35:00
3:55 AM,51.3,50.0,95,29.99,5.0,NNE,5.8,-,0.04,,Drizzle,30,2013-10-04 08:55:00
4:15 AM,51.3,50.0,95,29.99,5.0,NE,3.5,-,0.02,,Light Drizzle,40,2013-10-04 09:15:00
4:35 AM,51.3,50.0,95,29.98,7.0,NE,5.8,-,0.02,,Overcast,40,2013-10-04 09:35:00
4:55 AM,51.3,50.0,95,30.00,7.0,NE,4.6,-,0.02,Rain,Rain,40,2013-10-04 09:55:00
5:15 AM,51.1,49.8,95,30.01,3.0,NNE,4.6,-,0.01,,Heavy Drizzle,30,2013-10-04 10:15:00
5:35 AM,51.1,50.0,96,30.01,3.0,NE,4.6,-,0.04,,Drizzle,50,2013-10-04 10:35:00
5:55 AM,51.1,50.0,96,30.02,5.0,ENE,4.6,-,0.04,,Light Drizzle,60,2013-10-04 10:55:00
6:15 AM,51.1,49.6,95,30.01,7.0,ENE,5.8,-,N/A,,Overcast,60,2013-10-04 11:15:00
6:35 AM,51.3,50.0,95,30.02,10.0,East,6.9,-,N/A,,Overcast,80,2013-10-04 11:35:00
6:55 AM,51.3,49.8,95,30.02,10.0,ENE,5.8,-,N/A,,Overcast,70,2013-10-04 11:55:00
7:15 AM,50.9,49.3,94,30.02,10.0,NE,3.5,-,N/A,,Overcast,50,2013-10-04 12:15:00
7:35 AM,50.9,49.1,94,30.03,10.0,NE,4.6,-,N/A,,Overcast,40,2013-10-04 12:35:00
7:55 AM,50.9,49.1,94,30.04,10.0,ENE,4.6,-,N/A,,Overcast,60,2013-10-04 12:55:00
8:15 AM,51.1,49.3,94,30.04,10.0,NE,3.5,-,N/A,,Overcast,50,2013-10-04 13:15:00
8:35 AM,51.3,49.5,94,30.03,10.0,NE,5.8,-,N/A,,Overcast,40,2013-10-04 13:35:00
8:55 AM,51.8,50.0,94,30.03,10.0,NE,5.8,-,N/A,,Overcast,50,2013-10-04 13:55:00
9:15 AM,52.2,50.0,92,30.04,10.0,NE,5.8,-,N/A,,Overcast,50,2013-10-04 14:15:00
9:35 AM,52.7,50.2,91,30.04,10.0,ENE,3.5,-,N/A,,Overcast,60,2013-10-04 14:35:00
9:55 AM,52.7,50.2,91,30.04,10.0,NE,6.9,-,N/A,,Overcast,50,2013-10-04 14:55:00
10:15 AM,52.7,50.0,91,30.05,10.0,NE,4.6,-,N/A,,Overcast,40,2013-10-04 15:15:00
10:35 AM,52.9,50.2,91,30.05,10.0,Calm,Calm,-,N/A,,Overcast,0,2013-10-04 15:35:00
10:55 AM,53.1,50.2,90,30.05,10.0,NE,4.6,-,N/A,,Overcast,40,2013-10-04 15:55:00
11:15 AM,53.6,50.4,89,30.04,10.0,NE,8.1,-,N/A,,Overcast,50,2013-10-04 16:15:00
11:35 AM,53.8,50.5,89,30.05,10.0,NE,3.5,-,N/A,,Overcast,50,2013-10-04 16:35:00
11:55 AM,53.8,50.2,88,30.05,10.0,NE,8.1,-,N/A,,Overcast,50,2013-10-04 16:55:00
12:15 PM,54.0,50.5,88,30.06,10.0,NE,6.9,-,N/A,,Overcast,50,2013-10-04 17:15:00
12:35 PM,54.1,50.5,88,30.06,10.0,ENE,9.2,-,N/A,,Overcast,70,2013-10-04 17:35:00
12:55 PM,54.1,50.9,89,30.06,10.0,ENE,8.1,-,N/A,,Overcast,60,2013-10-04 17:55:00
1:15 PM,54.5,50.9,88,30.05,10.0,NE,8.1,-,N/A,,Overcast,50,2013-10-04 18:15:00
1:35 PM,54.5,50.9,88,30.05,10.0,ENE,5.8,-,N/A,,Overcast,70,2013-10-04 18:35:00
1:55 PM,54.5,51.1,88,30.04,10.0,ENE,6.9,-,N/A,,Overcast,60,2013-10-04 18:55:00
2:15 PM,54.5,51.1,88,30.05,10.0,ENE,3.5,-,N/A,,Overcast,60,2013-10-04 19:15:00
2:35 PM,54.1,51.4,91,30.04,5.0,ENE,8.1,-,0.02,Rain,Rain,60,2013-10-04 19:35:00
2:55 PM,54.0,51.8,92,30.04,5.0,Calm,Calm,-,0.03,Rain,Rain,0,2013-10-04 19:55:00
3:15 PM,53.8,52.0,94,30.05,5.0,Calm,Calm,-,N/A,Rain,Light Rain,0,2013-10-04 20:15:00
3:35 PM,53.8,52.0,94,30.04,2.5,Calm,Calm,-,0.05,Rain,Rain,0,2013-10-04 20:35:00
3:55 PM,53.8,52.2,94,30.04,3.0,East,3.5,-,0.08,Rain,Rain,80,2013-10-04 20:55:00
4:15 PM,53.8,52.2,94,30.05,4.0,ENE,3.5,-,N/A,,Drizzle,70,2013-10-04 21:15:00
4:35 PM,53.8,52.2,94,30.06,5.0,ENE,3.5,-,N/A,,Overcast,70,2013-10-04 21:35:00
4:55 PM,53.8,52.2,94,30.06,4.0,ENE,3.5,-,0.01,,Overcast,70,2013-10-04 21:55:00
5:15 PM,53.8,52.2,94,30.05,5.0,ENE,3.5,-,N/A,,Overcast,60,2013-10-04 22:15:00
5:35 PM,53.8,52.3,95,30.06,5.0,East,5.8,-,N/A,,Overcast,90,2013-10-04 22:35:00
5:55 PM,53.8,52.2,94,30.05,5.0,East,5.8,-,N/A,,Overcast,90,2013-10-04 22:55:00
6:15 PM,53.6,52.0,94,30.05,2.0,East,6.9,-,N/A,,Overcast,90,2013-10-04 23:15:00
6:35 PM,53.6,52.0,94,30.05,2.5,ENE,6.9,-,N/A,,Overcast,70,2013-10-04 23:35:00
6:55 PM,53.1,51.8,95,30.05,5.0,East,6.9,-,N/A,,Overcast,90,2013-10-04 23:55:00
7:15 PM,52.9,51.6,95,30.05,5.0,East,9.2,-,N/A,,Overcast,80,2013-10-05 00:15:00
7:35 PM,53.1,51.3,94,30.05,7.0,East,8.1,16.1,N/A,,Overcast,80,2013-10-05 00:35:00
7:55 PM,52.9,50.9,93,30.06,10.0,East,4.6,-,N/A,,Overcast,100,2013-10-05 00:55:00
8:15 PM,52.9,50.9,93,30.05,10.0,East,8.1,-,N/A,,Overcast,80,2013-10-05 01:15:00
8:35 PM,53.1,50.9,92,30.05,10.0,ENE,6.9,-,N/A,,Overcast,70,2013-10-05 01:35:00
8:55 PM,53.1,50.9,92,30.06,10.0,East,5.8,-,N/A,,Overcast,90,2013-10-05 01:55:00
9:15 PM,53.1,50.9,92,30.05,10.0,East,8.1,-,N/A,,Overcast,80,2013-10-05 02:15:00
9:35 PM,53.1,50.9,92,30.05,10.0,East,6.9,-,N/A,,Overcast,80,2013-10-05 02:35:00
9:55 PM,53.2,50.9,92,30.06,10.0,East,5.8,-,N/A,,Overcast,90,2013-10-05 02:55:00
10:15 PM,53.2,50.5,91,30.05,10.0,East,6.9,-,N/A,,Overcast,100,2013-10-05 03:15:00
10:35 PM,53.2,50.0,89,30.07,10.0,ESE,3.5,-,N/A,,Overcast,110,2013-10-05 03:35:00
10:55 PM,53.2,50.2,89,30.07,10.0,East,8.1,-,N/A,,Overcast,90,2013-10-05 03:55:00
11:15 PM,53.1,50.2,90,30.07,10.0,East,5.8,-,N/A,,Light Drizzle,90,2013-10-05 04:15:00
11:35 PM,52.7,50.4,92,30.05,4.0,East,8.1,-,0.03,Rain,Light Rain,80,2013-10-05 04:35:00
11:55 PM,52.3,50.5,94,30.03,7.0,East,10.4,-,0.05,,Overcast,80,2013-10-05 04:55:00